星链-31636 (STARLINK-31636 )

导读

STARLINK-31636是美国太空探索技术公司星链计划中的卫星,于北京时间2024年5月13日8点成功发射。星链计划旨在构建全球卫星互联网星座,该卫星入轨后将进一步扩充星链星座规模,助力提升全球范围尤其是偏远地区的互联网覆盖能力,推动全球网络互联基础设施建设。

基本信息
目录编号:
59747
目录名称:
STARLINK-31636
国际标识:
2024-090T
轨道中心:
EARTH
卫星名称:
星链-31636
卫星全名:
星链-31636 (STARLINK-31636 )
卫星状态:
在轨 (已飞行852 天)
发射日期:
2024-05-13 UTC
国别 :
美国 (US)
星等 :
--
该卫星已列入 空间交会检测服务 Space Conjunction Data Service (SCDS) ,当前飞行风险评估等级: 高风险
轨道信息
数据来源 国际轨道数据 AOE轨道数据
星历时间 2026-09-11T14:23:24+0800
18小时前
查看轨道信息
2026-09-09T23:00:00+0800
2天前
查看轨道信息
半长轴 6861.173km 6861.172km
偏心率 0.0000925 0.0000039
轨道倾角 43.002° 43.000°
近地点辐角 271.432° 269.206°
升交点赤经 215.284° 224.555°
平近点角 88.643° 54.593°
近地点 482.401km 483.008km
远地点 483.671km 483.062km
周期 94.266分钟 94.266分钟
每日圈数 15.275847 15.275849
详细信息
固有亮度:
5
最大亮度:
1.5
卫星平台:
Starlink v2.0 mini
覆盖范围:
全球
运营商:
太空探索技术公司
运营商所在国:
美国
制造商(研发单位):
太空探索技术公司
制造商所在国:
美国
使用方式:
暂无
卫星简介
星链(Starlink)计划是由太空探索技术公司(SpaceX)提出的一个巨型低轨卫星互联网星座项目,计划在2019年至2024年间在太空搭建由约1.2万颗卫星组成的“星链”网络,其中1584颗将部署在地球上空550千米处的近地轨道,并从2020年开始工作。该卫星仍在工作。
2D轨道图
3D轨道图
轨道高度分析图
轨道倾角分析图
轨道综合分析图
查看轨道综合分析图
交会数据列表
事件ID 空间交会对象 最接近时刻(TCA) 交会距离 交会风险概率(CRP) 交会风险指数(CRI) 操作
CDM_260913-000405-974706-704521
2026-09-13T
00:04:35+0000
0.538 km
远距离
1.351974E-4 高风险 0.78
CDM_260912-073505-974706-704522
2026-09-12T
07:35:59+0000
0.598 km
远距离
1.02567E-4 高风险 0.75
CDM_260912-091005-974706-704521
2026-09-12T
09:10:08+0000
1.749 km
极远距离
3.191675E-6 低风险 0.45
CDM_260908-172105-974706-430522
2026-09-08T
17:21:54+0000
2.847 km
极远距离
1.264499E-6 低风险 0.37
CDM_260913-013805-974706-704521
2026-09-13T
01:38:44+0000
2.730 km
极远距离
1.205133E-6 低风险 0.37
CDM_260912-060105-974706-704522
2026-09-12T
06:01:50+0000
2.758 km
极远距离
1.18848E-6 低风险 0.36
与全量物体交会距离演化趋势
与全量物体交会风险概率演化趋势